• Processing (Info)

  • MPEC 2022-R88 : 2022 RR1

    The following Minor Planet Electronic Circular may be linked-to from your own Web pages, but must not otherwise be redistributed electronically.

    A form allowing access to any MPEC is at the bottom of this page.


    Read MPEC 2022-R87 Read MPEC 2022-R89


    M.P.E.C. 2022-R88                             Issued 2022 September 5, 01:26 UT
    
         The Minor Planet Electronic Circulars contain information on unusual
             minor planets and routine data on comets.  They are published
        on behalf of Division F of the International Astronomical Union by the
              Minor Planet Center, Smithsonian Astrophysical Observatory,
                              Cambridge, MA 02138, U.S.A.
    
                 Prepared using the Tamkin Foundation Computer Network
    
                                  MPC@CFA.HARVARD.EDU
                URL https://www.minorplanetcenter.net/    ISSN 1523-6714
    
                                    2022 RR1                                 
    
    
    Observations:
         K22R01R  C2022 09 04.36785921 03 07.346-03 56 16.61         18.4 GVER088U68
         K22R01R  C2022 09 04.37120121 03 08.841-03 57 38.94         18.4 GVER088U68
         K22R01R* C2022 09 04.37611521 03 29.954-03 57 02.52         17.68oVER088T08
         K22R01R  C2022 09 04.38021221 03 31.543-03 58 44.11         18.25oVER088T08
         K22R01R  C2022 09 04.38567721 03 33.562-04 01 02.28         18.41oVER088T08
         K22R01R  C2022 09 04.39266421 03 18.924-04 06 33.54         18.4 GVER088U68
         K22R01R  C2022 09 04.39600621 03 20.554-04 07 57.25         18.4 GVER088U68
         K22R01R  C2022 09 04.39781321 03 38.141-04 06 06.08         18.20oVER088T08
         K22R01R  C2022 09 04.46784021 04 07.286-04 36 10.69         18.29oVER088T08
         K22R01R  C2022 09 04.46829721 04 07.457-04 36 22.93         18.67oVER088T08
         K22R01R  C2022 09 04.46875221 04 07.714-04 36 34.63         18.21oVER088T08
         K22R01R  C2022 09 04.46920821 04 07.891-04 36 46.58         17.91oVER088T08
         K22R01R KC2022 09 04.80206 21 09 07.934-07 27 25.60         18.0 GVER088A17
         K22R01R KC2022 09 04.80719 21 09 11.527-07 30 19.15         18.2 GVER088A17
         K22R01R KC2022 09 04.80721121 09 10.40 -07 29 49.5          18.6 GXER088L01
         K22R01R KC2022 09 04.80959721 09 12.01 -07 31 10.8          18.5 GXER088L01
         K22R01R KC2022 09 04.81074221 09 12.78 -07 31 49.9          18.5 GXER088L01
         K22R01R KC2022 09 04.81189321 09 13.56 -07 32 29.0          18.6 GXER088L01
         K22R01R KC2022 09 04.81247 21 09 15.209-07 33 18.90         18.0 GVER088A17
         K22R01R KC2022 09 04.81294721 09 14.27 -07 33 05.0          18.3 GXER088L01
         K22R01R KC2022 09 04.82645021 09 26.02 -07 40 47.2          18.2 GVER088203
         K22R01R KC2022 09 04.82993821 09 27.969-07 42 36.08         17.5 GVER088K63
         K22R01R KC2022 09 04.83141321 09 28.969-07 43 26.88         18.0 GVER088K63
         K22R01R KC2022 09 04.83253821 09 30.17 -07 44 17.3          18.0 GVER088203
         K22R01R KC2022 09 04.83358321 09 30.424-07 44 41.51         18.0 GVER088K63
         K22R01R KC2022 09 04.83561321 09 31.57 -07 45 52.8          17.8 GVER088104
         K22R01R KC2022 09 04.83896521 09 33.81 -07 47 49.0          17.9 GVER088104
         K22R01R KC2022 09 04.83925921 09 34.75 -07 48 10.9          17.9 GVER088203
         K22R01R KC2022 09 04.84231821 09 36.09 -07 49 45.7          17.9 GVER088104
         K22R01R KC2022 09 04.86019821 09 54.85 -08 00 11.2          18.3 GXER088I93
         K22R01R KC2022 09 04.86280021 09 56.63 -08 01 43.0          18.5 GXER088I93
         K22R01R KC2022 09 04.86539421 09 58.44 -08 03 14.9          18.5 GXER088I93
         K22R01R KC2022 09 04.87148521 10 03.43 -08 06 44.1          17.5 GXER088958
         K22R01R KC2022 09 04.87767821 10 07.72 -08 10 24.6          17.7 GXER088958
         K22R01R KC2022 09 04.88386621 10 11.93 -08 14 05.6          17.7 GXER088958
         K22R01R KC2022 09 04.90611021 10 26.182-08 28 32.12               VER088Z80
         K22R01R KC2022 09 04.91151 21 10 24.70 -08 31 06.8                VER088204
         K22R01R KC2022 09 04.91598121 10 33.415-08 34 33.10         18.3 GVER088Z80
         K22R01R KC2022 09 04.91742 21 10 28.88 -08 34 42.7          18.0 GVER088204
         K22R01R KC2022 09 04.94087 21 10 43.97 -08 48 50.2          18.7 GXER088L63
         K22R01R KC2022 09 04.94227521 11 28.239-08 36 01.92         17.1 GXER088Y00
         K22R01R KC2022 09 04.94523 21 10 47.10 -08 51 32.9          18.8 GXER088L63
         K22R01R KC2022 09 04.94541321 11 30.499-08 38 00.51         17.4 GXER088Y00
         K22R01R KC2022 09 04.94855621 11 32.831-08 39 59.00         17.1 GXER088Y00
         K22R01R KC2022 09 04.94955 21 10 50.29 -08 54 14.0                XER088L63
         K22R01R |C2022 09 05.01123 21 12 35.92 -09 17 39.9          17.9 VuER088807
         K22R01R |C2022 09 05.01941 21 12 42.52 -09 23 04.4          17.8 VuER088807
         K22R01R |C2022 09 05.02759 21 12 49.07 -09 28 30.7          17.9 VuER088807
    
    Observer details:
    104 San Marcello Pistoiese.  Observers P. Bacci, M. Maestripieri.  Measurers
        P. Bacci, L. Tesi, G. Fagioli.  0.60-m F4 Reflector + CCD.
    203 GiaGa Observatory.  Observers S. Foglia, G. Galli.  Measurer G. Galli.
        0.36-m f/5.76 Schmidt-Cassegrain + CCD.
    204 Schiaparelli Observatory.  Observer L. Buzzi.  0.84-m f/3.5 reflector +
        CCD.
    807 Cerro Tololo Observatory, La Serena.  Observers T. Linder, R. Holmes, L.
        Horn.  0.61-m f/6.5 Dall-Kirkham Astrograph + CCD.
    958 Observatoire de Dax.  Observer P. Dupouy.  0.32-m Schmidt-Cassegrain +
        CCD.
    A17 Guidestar Observatory, Weinheim.  Observers M. Emmerich, S. Melchert.
        0.36-m f/6.0 Schmidt-Cassegrain + CCD.
    I93 St Pardon de Conques.  Observer F. Losse.  0.40-m f/3.7 reflector + CCD.
    K63 G. Pascoli Observatory, Castelvecchio Pascoli.  Observer R. Bacci.  0.4-m
        f/3.2 0.40m f/3.2  Newton + CCD.
    L01 Visnjan Observatory, Tican.  Observers K. Korlevic, E. Pettarin.  Measurer
        E. Pettarin.  1.0-m f/2.9 reflector + CCD.
    L63 HOB Observatory, Capraia Fiorentina.  Observer M. Iozzi.  0.2m f/6.75
        Schmidt-Cassegrain + CCD.
    T08 ATLAS-MLO, Mauna Loa.  Observers L. Denneau, R. Siverd, J. Tonry, H.
        Weiland.  Measurers L. Denneau, N. Erasmus, A. Fitzsimmons, A. Lawrence,
        J. Robinson, R. Siverd, J. Tonry, H. Weiland.  0.5-m Reflector + CCD.
    U68 JPL SynTrack Robotic Telescope, Auberry.  Observers N. Saini, C. Zhai, R.
        Trahan, M. Zhan, M. Shao.  0.28-m Reflector + CCD.
    Y00 SONEAR Observatory, Oliveira.  Observer C. Jacques.  0.45-m f/2.9
        reflector + CCD.
    Z80 Northolt Branch Observatory.  Observer G. Wells.  Measurers G. Wells, D.
        Bamberger.  0.25-m f/8.0 Ritchey-Chretien + CCD.
    
    Orbital elements:
    2022 RR1                                                 Earth MOID = 0.0050 AU
    Epoch 2022 Aug. 9.0 TT = JDT 2459800.5                  Bell                    
    M 322.21676              (2000.0)            P               Q                  
    n   0.57328240     Peri.  225.84074     +0.87896750     -0.47504698             
    a   1.4351269      Node   162.39018     +0.46739869     +0.84078511             
    e   0.3472088      Incl.    7.94006     +0.09462870     +0.25963582             
    P   1.72           H   26.71          G   0.15           U   6                  
    Residuals in seconds of arc
    220904 U68  0.1+  0.4-    220904 L01  0.2-  0.1+    220904 958  0.9+  0.3-
    220904 U68  0.2-  0.1-    220904 L01  0.1-  0.2+    220904 958  0.9+  0.1+
    220904 T08  0.5-  0.3-    220904 A17  0.0   0.1+    220904 958  0.3-  0.7+
    220904 T08  0.5+  0.3+    220904 L01  0.1-  0.1+    220904 Z80  0.8-  0.4-
    220904 T08  0.1+  1.1-    220904 203  0.0   0.1+    220904 204  0.2+  0.3-
    220904 U68  0.1-  0.1+    220904 K63  0.4+  0.2+    220904 Z80  0.9-  0.5-
    220904 U68  0.0   0.2+    220904 K63  0.5+  0.4+    220904 204  0.1+  0.1-
    220904 T08  0.3-  0.4+    220904 203  0.0   0.2+    220904 L63  0.5+  0.4-
    220904 T08  0.1+  0.2+    220904 K63  0.4+  0.8+    220904 Y00  0.4+  0.2+
    220904 T08  0.5-  0.0     220904 104  0.0   0.1-    220904 L63  0.1+  0.7-
    220904 T08  0.3+  0.3+    220904 104  0.2-  0.0     220904 Y00  0.2-  0.5-
    220904 T08  0.2-  0.3+    220904 203  0.0   0.4-    220904 Y00  0.3+  0.6-
    220904 A17  0.0   0.2-    220904 104  0.2+  0.1-    220904 L63  0.6+  0.4-
    220904 A17  0.1+  0.2+    220904 I93  0.3+  0.1+    220905 807  0.2-  0.0
    220904 L01  0.2-  0.4+    220904 I93  0.1-  0.3+    220905 807  0.1-  0.0
    220904 L01  0.2-  0.2+    220904 I93  0.1+  0.2+    220905 807  0.2-  0.1+
    
    Ephemeris:
    2022 RR1                 a,e,i = 1.44, 0.35, 8                   q = 0.9368
    Date    TT    R. A. (2000) Decl.     Delta      r    Elong.  Phase     V
    2022 08 06    20 44 17.2 +11 56 42   0.1597  1.1565   150.8    25.3    24.2
    ...
    2022 08 21    20 41 25.2 +12 18 46   0.08183 1.0825   148.7    29.0    22.7
    ...
    2022 08 29    20 43 24.1 +09 55 15   0.04312 1.0467   147.4    31.4    21.3
    ...
    2022 09 04    21 00 05.1 -01 34 07   0.01513 1.0220   151.9    27.7    18.9
    2022 09 05    21 11 52.1 -09 15 11   0.01076 1.0181   154.6    25.1    18.1
    2022 09 06    21 40 57.5 -26 14 02   0.0068831.0143   153.2    26.6    17.1
    ...
    2022 09 12    08 14 30.5 -26 05 51   0.02405 0.9927    54.1   124.8    23.8
    ...
    2022 09 20    08 29 11.3 -19 11 10   0.06163 0.9685    52.9   124.2    25.8
    ...
    2022 10 05    08 43 13.1 -16 17 39   0.1323  0.9404    59.7   113.3    26.6
    
    M. P. C. Staff               (C) Copyright 2022 MPC           M.P.E.C. 2022-R88
    


    Read MPEC 2022-R87 Read MPEC 2022-R89


    MPEC number:

    Enter an MPEC number in one of the following forms:

    • 1997-B01 (the full form)
    • J97B01 (the packed version of the full form)
    • B01 (the abbreviated form)